Flag for Namibia Weather past 2 weeks in Windhoek, Namibia

Now
68 °F

Sunny.


Feels Like: 68 °F
Forecast: 50 / 76 °F
Wind: No wind

Location: Windhoek

Current Time: Aug 1, 2014 at 11:30:04 AM

Latest Report: Aug 1, 2014 at 10:00 AM


Visibility: 10 mi

Pressure: 30.39 "Hg

Humidity: 26%

Dew point: 32 °F

Location of WindhoekLocation

Historic Weather in Windhoek — Graph

°F

Windhoek temperature yesterday

Maximum temperature yesterday: 73 °F (at 2:00 PM)
Minimum temperature yesterday: 48 °F (at 4:00 AM)
Average temperature yesterday: 59 °F

Past Weeks' High & Low Weather Summary

 TemperatureHumidityPressure
High79 °F (Jul 24, 3:00 PM)87% (Jul 30, 5:00 AM)30.42 "Hg (Jul 30, 5:00 AM)
Low32 °F (Jul 26, 2:00 AM)5% (Jul 25, 3:00 PM)30.15 "Hg (Jul 18, 2:00 PM)
Average57 °F30%30.31 "Hg
* Reported Jul 17 10:00 AM — Aug 1 10:00 AM, Windhoek, Weather by CustomWeather, © 2014

Note: Actual official high and low records may vary slightly from our data, if they occured in-between our weather recording intervals... More about our weather records

Advertising

Windhoek weather history for previous 24 hours

 ConditionsComfort  
Time TempWeatherWind HumidityBarometerVisibility
10:00 AM
Aug 1
68 °FSunny.No wind26%30.39 "Hg10 mi
9:00 AM63 °FSunny.No wind32%30.39 "Hg10 mi
8:00 AM59 °FSunny.5 mph36%30.39 "Hg10 mi
7:00 AM54 °FSunny.6 mph44%30.36 "Hg10 mi
6:00 AM52 °FSunny.6 mph47%30.36 "Hg10 mi
5:00 AM52 °FCool.8 mph47%30.33 "HgN/A
4:00 AM54 °FCool.8 mph41%30.33 "HgN/A
3:00 AM55 °FRefreshingly cool.6 mph38%30.33 "HgN/A
2:00 AM57 °FRefreshingly cool.7 mph36%30.33 "HgN/A
1:00 AM55 °FRefreshingly cool.8 mph36%30.36 "HgN/A
12:00 AM59 °FRefreshingly cool.6 mph34%30.36 "HgN/A
11:00 PM
Jul 31
61 °FRefreshingly cool.1 mph29%30.36 "HgN/A
10:00 PM57 °FRefreshingly cool.6 mph33%30.36 "HgN/A
9:00 PM59 °FRefreshingly cool.7 mph34%30.33 "HgN/A
8:00 PM59 °FRefreshingly cool.6 mph36%30.36 "HgN/A
7:00 PM61 °FPassing clouds.5 mph34%30.33 "HgN/A
6:00 PM64 °FPassing clouds.3 mph30%30.33 "HgN/A
4:00 PM68 °FPartly sunny.5 mph28%30.30 "HgN/A
3:00 PM73 °FSprinkles. Partly sunny.No wind22%30.30 "HgN/A
2:00 PM73 °FScattered clouds.No wind23%30.30 "HgN/A
1:00 PM72 °FPassing clouds.No wind25%30.33 "HgN/A
12:00 PM72 °FPassing clouds.3 mph25%30.36 "HgN/A
Weather by CustomWeather, © 2014

See weather overviewHow to use our weather pages